Weather WX

World > North America > United States > North Dakota

Center, North Dakota Regional Weather

Lat: 47.12N, Lon: 101.3W
Wx Zone: NDZ020
Warning FLW WEATHER ALERT - (More Info. Click Here) Warning
Feedback

Center, ND Regional Weather

Expires:201907170300;;758345
ASUS43 KBIS 170210
RWRND 

NORTH DAKOTA REGIONAL WEATHER ROUNDUP
NATIONAL WEATHER SERVICE BISMARCK ND
900 PM CDT TUE JUL 16 2019

NOTE: "FAIR" INDICATES FEW OR NO CLOUDS BELOW 12,000 FEET WITH NO
SIGNIFICANT WEATHER AND/OR OBSTRUCTIONS TO VISIBILITY.



NDZ018>021-031>035-040>046-170300-
SOUTHWEST NORTH DAKOTA
  
CITY           SKY/WX    TMP DP  RH WIND       PRES   REMARKS
BISMARCK       MOCLDY    71  62  73 E9        29.87S                  
DICKINSON      CLOUDY    68  64  87 E6        29.87R                  
GARRISON         N/A     70  62  76 SE9       29.86F                  
HETTINGER ARPT MOCLDY    73  65  75 NE12G17   29.87R                  
$$
 

SKY/WX - Weather  TMP - Temperature  DP - Dew Point  RH - Relative Humidity
WIND - Wind Direction/Speed PRES - Barometric Pressure VSB - Visibility
WCI - Wind Chill Index E13G22 Wind - East Wind 13 mph/Gusts of 22 mph